This is the latest recevied weather packets stored in our database for station/object KI4MRC. If no packets are shown the sender has not sent any weather packets the latest 10 day(s).
| Time | Temp. | Humidity | Pressure | Rain* | Wind** | Luminosity | Snow |
|---|---|---|---|---|---|---|---|
| 1777958972 | 21.67° C | 96% | 1014.3 hPa | 0 mm | - | 0 W/m² | - |
| 1777958669 | 21.67° C | 96% | 1014.4 hPa | 0 mm | - | 0 W/m² | - |
| 1777958366 | 21.67° C | 96% | 1014.6 hPa | 9.65 mm | - | 0 W/m² | - |
| 1777958063 | 21.67° C | 95% | 1014.7 hPa | 25.91 mm | - | 0 W/m² | - |
| 1777957762 | 22.22° C | 94% | 1014.7 hPa | 28.19 mm | - | 0 W/m² | - |
| 1777957460 | 22.78° C | 92% | 1015.1 hPa | 14.48 mm | - | 0 W/m² | - |
| 1777957156 | 23.33° C | 89% | 1014.9 hPa | 0.51 mm | - | 0 W/m² | - |
| 1777956853 | 23.89° C | 86% | 1014.8 hPa | 0 mm | - | 0 W/m² | - |
| 1777956550 | 23.89° C | 83% | 1014.6 hPa | 0 mm | - | 0 W/m² | - |
| 1777956247 | 23.89° C | 81% | 1014.6 hPa | 0 mm | - | 0 W/m² | - |
| 1777955943 | 23.89° C | 81% | 1014.6 hPa | 0 mm | - | 0 W/m² | - |
| 1777955640 | 23.89° C | 81% | 1014.7 hPa | 0 mm | - | 0 W/m² | - |
| 1777955336 | 23.89° C | 81% | 1014.8 hPa | 0 mm | - | 0 W/m² | - |
| 1777955033 | 23.89° C | 80% | 1014.6 hPa | 0 mm | - | 0 W/m² | - |
| 1777954730 | 23.89° C | 80% | 1014.9 hPa | 0 mm | - | 0 W/m² | - |
| 1777954427 | 23.89° C | 80% | 1014.7 hPa | 0 mm | - | 0 W/m² | - |
| 1777954124 | 23.89° C | 81% | 1014.9 hPa | 0 mm | - | 0 W/m² | - |
| 1777953822 | 23.89° C | 81% | 1015 hPa | 0 mm | - | 0 W/m² | - |
| 1777953518 | 23.89° C | 81% | 1014.9 hPa | 0 mm | - | 0 W/m² | - |
| 1777953214 | 23.89° C | 81% | 1014.8 hPa | 0 mm | - | 0 W/m² | - |
| 1777952912 | 23.89° C | 81% | 1014.9 hPa | 0 mm | - | 0 W/m² | - |
| 1777952608 | 23.89° C | 81% | 1014.9 hPa | 0 mm | - | 0 W/m² | - |
| 1777952305 | 23.89° C | 82% | 1015.1 hPa | 0 mm | - | 0 W/m² | - |
| 1777952002 | 23.89° C | 81% | 1015 hPa | 0 mm | - | 0 W/m² | - |
| 1777951701 | 23.89° C | 82% | 1015.1 hPa | 0 mm | - | 0 W/m² | - |
* Rain latest hour (hover to see other rain measurements)
** Current wind speed in m/s (hover to see current wind gust speed)